Regional Weather Roundup
Issued by NWS

Home | Current Version | Previous Version | Graphics & Text | Print | Product List | Glossary On
Versions: 1 2 3 4 5 6 7 8 9 10 11 12 13 14 15 16 17 18 19 20 21 22 23 24 25 26 27 28 29 30 31 32 33 34 35 36 37 38 39 40 41 42 43 44 45 46 47 48 49 50
000
ASUS45 KSLC 301010
RWRUT

UTAH REGIONAL WEATHER ROUNDUP
NATIONAL WEATHER SERVICE SALT LAKE CITY UT
400 AM MDT SAT AUG 30 2014

UTZ001>011-023>025-301100-

NORTHERN UTAH

CITY           SKY/WX    TMP DP  RH WIND       PRES   REMARKS
HILL AFB         N/A     70  42  36 SE15G22   29.93F
LOGAN          CLEAR     54  50  86 N5        29.92S
OGDEN            N/A     70  42  36 S12       29.91S
PROVO AIRPORT    N/A     66  45  45 SE8       29.99S
SALT LAKE CITY MOCLDY    73  43  33 SE13      29.90S
VERNAL         PTCLDY    54  46  74 W6        30.11S
WENDOVER         N/A     75  34  22 CALM      29.91S
HEBER CITY       N/A     52  46  82 CALM      30.08S
WEST JORDAN    CLEAR     73  48  40 S17       29.94F

$$

UTZ012>022-026-027-301100-

SOUTHERN UTAH

CITY           SKY/WX    TMP DP  RH WIND       PRES   REMARKS
BRYCE CANYON     N/A     45  39  79 W3        30.26F
CEDAR CITY       N/A     63  33  32 S5        30.07F
MILFORD          N/A     65  36  34 S9        30.01F
MOAB/CYNLANDS  CLEAR     67  42  40 CALM      30.03S
PRICE            N/A     61  41  47 CALM      30.12F
ST GEORGE        N/A     73  37  27 SE5       29.92S

$$

REGIONAL REPORTS     COLORADO/ARIZONA

CITY           SKY/WX    TMP DP  RH WIND       PRES   REMARKS
CRAIG, CO      CLEAR     47  44  90 E3        30.17S
GRAND JUNCTION PTCLDY    59  49  69 E7        30.08F
RIFLE          CLEAR     53  48  83 S3        30.16S
MONTROSE       PTCLDY    55  45  68 S6        30.18S
CORTEZ         CLEAR     49  43  80 E3        30.17S
PAGE, AZ         N/A     71  32  23 CALM      30.02S
GRAND CANYON     N/A    N/A N/A N/A MISG        N/A
KINGMAN          N/A     75  32  20 CALM      29.94F
FLAGSTAFF        N/A     46  41  82 CALM      30.26S

$$

REGIONAL REPORTS    NEVADA/IDAHO/WYOMING

CITY           SKY/WX    TMP DP  RH WIND       PRES   REMARKS
LAS VEGAS, NV    N/A     84  31  14 SW7       29.77S
ELY              N/A     58  34  40 VRB5      30.10F
ELKO             N/A     54  38  54 VRB3      29.98F
POCATELLO, ID  CLEAR     55  48  77 CALM      29.88F
BURLEY           N/A     58  47  66 W3        29.85S
EVANSTON, WY   CLEAR     57  38  48 S7        30.12F
ROCK SPRINGS   PTCLDY    57  36  45 S7        30.13S

$$


USA.gov is the U.S. government's official web portal to all federal, state and local government web resources and services.